Time,TemperatureF,DewpointF,PressureIn,WindDirection,WindDirectionDegrees,WindSpeedMPH,WindSpeedGustMPH,Humidity,HourlyPrecipIn,Conditions,Clouds,dailyrainin,SolarRadiationWatts/m^2,SoftwareType,DateUTC
2013-03-30 00:02:00,46.0,36.0,-100.00,SE,140,2.0,4.0,67,0.00,,,0.00,0.000000,,2013-03-30 04:02:00,
2013-03-30 00:33:00,45.0,35.0,-100.00,South,184,2.0,5.0,68,0.00,,,0.00,0.000000,,2013-03-30 04:33:00,
2013-03-30 00:43:00,45.0,35.0,-100.00,South,184,2.0,5.0,68,0.00,,,0.00,0.000000,,2013-03-30 04:43:00,
2013-03-30 00:53:00,45.0,35.0,-100.00,South,184,2.0,5.0,68,0.00,,,0.00,0.000000,,2013-03-30 04:53:00,
2013-03-30 01:02:00,45.0,35.0,-100.00,South,184,2.0,5.0,68,0.00,,,0.00,0.000000,,2013-03-30 05:02:00,
2013-03-30 01:32:00,44.0,37.0,-100.00,SW,226,2.0,4.0,77,0.00,,,0.00,0.000000,,2013-03-30 05:32:00,
2013-03-30 01:42:00,44.0,37.0,-100.00,SW,226,2.0,4.0,77,0.00,,,0.00,0.000000,,2013-03-30 05:42:00,
2013-03-30 01:52:00,44.0,37.0,-100.00,SW,226,2.0,4.0,77,0.00,,,0.00,0.000000,,2013-03-30 05:52:00,
2013-03-30 02:02:00,44.0,37.0,-100.00,SW,226,2.0,4.0,77,0.00,,,0.00,0.000000,,2013-03-30 06:02:00,
2013-03-30 02:32:00,43.0,39.0,-100.00,South,179,1.0,4.0,85,0.00,,,0.00,0.000000,,2013-03-30 06:32:00,
2013-03-30 02:42:00,43.0,39.0,-100.00,South,179,1.0,4.0,85,0.00,,,0.00,0.000000,,2013-03-30 06:42:00,
2013-03-30 02:52:00,43.0,39.0,-100.00,South,179,1.0,4.0,85,0.00,,,0.00,0.000000,,2013-03-30 06:52:00,
2013-03-30 03:02:00,43.0,39.0,-100.00,South,179,1.0,4.0,85,0.00,,,0.00,0.000000,,2013-03-30 07:02:00,
2013-03-30 04:32:00,42.0,41.0,-100.00,SSW,196,2.0,5.0,97,-99.99,,,0.03,0.000000,,2013-03-30 08:32:00,
2013-03-30 04:42:00,42.0,41.0,-100.00,SSW,196,2.0,5.0,97,-99.99,,,0.03,0.000000,,2013-03-30 08:42:00,
2013-03-30 04:53:00,42.0,41.0,-100.00,SSW,196,2.0,5.0,97,-99.99,,,0.03,0.000000,,2013-03-30 08:53:00,
2013-03-30 05:02:00,42.0,41.0,-100.00,SSW,196,2.0,5.0,97,-99.99,,,0.03,0.000000,,2013-03-30 09:02:00,
2013-03-30 06:33:00,42.0,41.0,-100.00,North,349,1.0,4.0,98,-99.99,,,0.03,0.000000,,2013-03-30 10:33:00,
2013-03-30 06:42:00,42.0,41.0,-100.00,North,349,1.0,4.0,98,-99.99,,,0.03,0.000000,,2013-03-30 10:42:00,
2013-03-30 06:53:00,42.0,41.0,-100.00,North,349,1.0,4.0,98,-99.99,,,0.03,0.000000,,2013-03-30 10:53:00,
2013-03-30 07:04:00,42.0,41.0,-100.00,North,349,1.0,4.0,98,-99.99,,,0.03,0.000000,,2013-03-30 11:04:00,
2013-03-30 07:33:00,40.0,39.0,-100.00,WNW,292,1.0,2.0,98,0.00,,,0.03,0.000000,,2013-03-30 11:33:00,
2013-03-30 07:43:00,40.0,39.0,-100.00,WNW,292,1.0,2.0,98,0.00,,,0.03,0.000000,,2013-03-30 11:43:00,
2013-03-30 07:53:00,40.0,39.0,-100.00,WNW,292,1.0,2.0,98,0.00,,,0.03,0.000000,,2013-03-30 11:53:00,
2013-03-30 08:02:00,40.0,39.0,-100.00,WNW,292,1.0,2.0,98,0.00,,,0.03,0.000000,,2013-03-30 12:02:00,
2013-03-30 08:33:00,39.0,39.0,-100.00,NNW,341,1.0,3.0,99,0.00,,,-99.99,20.000000,,2013-03-30 12:33:00,
2013-03-30 08:43:00,39.0,39.0,-100.00,NNW,341,1.0,3.0,99,0.00,,,-99.99,20.000000,,2013-03-30 12:43:00,
2013-03-30 08:53:00,39.0,39.0,-100.00,NNW,341,1.0,3.0,99,0.00,,,-99.99,20.000000,,2013-03-30 12:53:00,
2013-03-30 09:02:00,39.0,39.0,-100.00,NNW,341,1.0,3.0,99,0.00,,,-99.99,20.000000,,2013-03-30 13:02:00,
2013-03-30 09:32:00,47.0,46.0,-100.00,South,188,2.0,4.0,98,0.00,,,0.03,166.000000,,2013-03-30 13:32:00,
2013-03-30 09:43:00,47.0,46.0,-100.00,South,188,2.0,4.0,98,0.00,,,0.03,166.000000,,2013-03-30 13:43:00,
2013-03-30 09:53:00,47.0,46.0,-100.00,South,188,2.0,4.0,98,0.00,,,0.03,166.000000,,2013-03-30 13:53:00,
2013-03-30 10:03:00,47.0,46.0,-100.00,South,188,2.0,4.0,98,0.00,,,0.03,166.000000,,2013-03-30 14:03:00,
2013-03-30 10:33:00,50.0,42.0,-100.00,ESE,111,3.0,6.0,73,0.00,,,0.03,299.000000,,2013-03-30 14:33:00,
2013-03-30 10:43:00,50.0,42.0,-100.00,ESE,111,3.0,6.0,73,0.00,,,0.03,299.000000,,2013-03-30 14:43:00,
2013-03-30 10:53:00,50.0,42.0,-100.00,ESE,111,3.0,6.0,73,0.00,,,0.03,299.000000,,2013-03-30 14:53:00,
2013-03-30 11:03:00,50.0,42.0,-100.00,ESE,111,3.0,6.0,73,0.00,,,0.03,299.000000,,2013-03-30 15:03:00,
2013-03-30 11:34:00,56.0,46.0,-100.00,SE,124,4.0,8.0,68,0.00,,,0.03,638.000000,,2013-03-30 15:34:00,
2013-03-30 11:43:00,56.0,46.0,-100.00,SE,124,4.0,8.0,68,0.00,,,0.03,638.000000,,2013-03-30 15:43:00,
2013-03-30 11:53:00,56.0,46.0,-100.00,SE,124,4.0,8.0,68,0.00,,,0.03,638.000000,,2013-03-30 15:53:00,
2013-03-30 12:04:00,56.0,46.0,-100.00,SE,124,4.0,8.0,68,0.00,,,0.03,638.000000,,2013-03-30 16:04:00,
2013-03-30 12:33:00,58.0,41.0,-100.00,North,351,3.0,8.0,53,0.00,,,0.03,756.000000,,2013-03-30 16:33:00,
2013-03-30 12:43:00,58.0,41.0,-100.00,North,351,3.0,8.0,53,0.00,,,0.03,756.000000,,2013-03-30 16:43:00,
2013-03-30 12:53:00,58.0,41.0,-100.00,North,351,3.0,8.0,53,0.00,,,0.03,756.000000,,2013-03-30 16:53:00,
2013-03-30 13:02:00,58.0,41.0,-100.00,North,351,3.0,8.0,53,0.00,,,0.03,756.000000,,2013-03-30 17:02:00,
2013-03-30 13:33:00,57.0,40.0,-100.00,NW,315,5.0,9.0,52,0.00,,,0.03,758.000000,,2013-03-30 17:33:00,
2013-03-30 13:43:00,57.0,40.0,-100.00,NW,315,5.0,9.0,52,0.00,,,0.03,758.000000,,2013-03-30 17:43:00,
2013-03-30 13:53:00,57.0,40.0,-100.00,NW,315,5.0,9.0,52,0.00,,,0.03,758.000000,,2013-03-30 17:53:00,
2013-03-30 14:03:00,57.0,40.0,-100.00,NW,315,5.0,9.0,52,0.00,,,0.03,758.000000,,2013-03-30 18:03:00,
2013-03-30 14:33:00,59.0,45.0,-100.00,West,267,6.0,12.0,59,0.00,,,0.03,939.000000,,2013-03-30 18:33:00,
2013-03-30 14:43:00,59.0,45.0,-100.00,West,267,6.0,12.0,59,0.00,,,0.03,939.000000,,2013-03-30 18:43:00,
2013-03-30 14:53:00,59.0,45.0,-100.00,West,267,6.0,12.0,59,0.00,,,0.03,939.000000,,2013-03-30 18:53:00,
2013-03-30 15:03:00,59.0,45.0,-100.00,West,267,6.0,12.0,59,0.00,,,0.03,939.000000,,2013-03-30 19:03:00,
2013-03-30 16:33:00,62.0,41.0,-100.00,West,275,3.0,11.0,46,-99.99,,,0.03,666.000000,,2013-03-30 20:33:00,
2013-03-30 16:43:00,62.0,41.0,-100.00,West,275,3.0,11.0,46,-99.99,,,0.03,666.000000,,2013-03-30 20:43:00,
2013-03-30 16:53:00,62.0,41.0,-100.00,West,275,3.0,11.0,46,-99.99,,,0.03,666.000000,,2013-03-30 20:53:00,
2013-03-30 17:03:00,62.0,41.0,-100.00,West,275,3.0,11.0,46,-99.99,,,0.03,666.000000,,2013-03-30 21:03:00,
2013-03-30 17:34:00,61.0,40.0,-100.00,WNW,287,4.0,8.0,46,0.00,,,0.03,348.000000,,2013-03-30 21:34:00,
2013-03-30 17:43:00,61.0,40.0,-100.00,WNW,287,4.0,8.0,46,0.00,,,0.03,348.000000,,2013-03-30 21:43:00,
2013-03-30 17:53:00,61.0,40.0,-100.00,WNW,287,4.0,8.0,46,0.00,,,0.03,348.000000,,2013-03-30 21:53:00,
2013-03-30 18:03:00,61.0,40.0,-100.00,WNW,287,4.0,8.0,46,0.00,,,0.03,348.000000,,2013-03-30 22:03:00,
2013-03-30 18:33:00,61.0,42.0,-100.00,SW,235,4.0,8.0,49,0.00,,,0.03,205.000000,,2013-03-30 22:33:00,
2013-03-30 18:44:00,61.0,42.0,-100.00,SW,235,4.0,8.0,49,0.00,,,0.03,205.000000,,2013-03-30 22:44:00,
2013-03-30 18:54:00,61.0,42.0,-100.00,SW,235,4.0,8.0,49,0.00,,,0.03,205.000000,,2013-03-30 22:54:00,
2013-03-30 19:03:00,61.0,42.0,-100.00,SW,235,4.0,8.0,49,0.00,,,0.03,205.000000,,2013-03-30 23:03:00,
2013-03-30 19:33:00,60.0,40.0,-100.00,SE,133,1.0,6.0,47,0.00,,,0.03,101.000000,,2013-03-30 23:33:00,
2013-03-30 19:43:00,60.0,40.0,-100.00,SE,133,1.0,6.0,47,0.00,,,0.03,101.000000,,2013-03-30 23:43:00,
2013-03-30 19:53:00,60.0,40.0,-100.00,SE,133,1.0,6.0,47,0.00,,,0.03,101.000000,,2013-03-30 23:53:00,
2013-03-30 20:03:00,60.0,40.0,-100.00,SE,133,1.0,6.0,47,0.00,,,0.03,101.000000,,2013-03-31 00:03:00,
2013-03-30 20:33:00,55.0,42.0,-100.00,WSW,258,9.0,14.0,61,0.00,,,0.03,3.000000,,2013-03-31 00:33:00,
2013-03-30 20:43:00,55.0,42.0,-100.00,WSW,258,9.0,14.0,61,0.00,,,0.03,3.000000,,2013-03-31 00:43:00,
2013-03-30 20:53:00,55.0,42.0,-100.00,WSW,258,9.0,14.0,61,0.00,,,0.03,3.000000,,2013-03-31 00:53:00,
2013-03-30 21:02:00,55.0,42.0,-100.00,WSW,258,9.0,14.0,61,0.00,,,0.03,3.000000,,2013-03-31 01:02:00,
2013-03-30 21:32:00,52.0,51.0,-100.00,SSW,202,4.0,13.0,95,0.08,,,-99.99,0.000000,,2013-03-31 01:32:00,
2013-03-30 21:43:00,52.0,51.0,-100.00,SSW,202,4.0,13.0,95,0.08,,,-99.99,0.000000,,2013-03-31 01:43:00,
2013-03-30 21:53:00,52.0,51.0,-100.00,SSW,202,4.0,13.0,95,0.08,,,-99.99,0.000000,,2013-03-31 01:53:00,
2013-03-30 22:02:00,52.0,51.0,-100.00,SSW,202,4.0,13.0,95,0.08,,,-99.99,0.000000,,2013-03-31 02:02:00,
2013-03-30 22:33:00,51.0,51.0,-100.00,SSE,150,4.0,7.0,99,0.05,,,0.16,0.000000,,2013-03-31 02:33:00,
2013-03-30 22:43:00,51.0,51.0,-100.00,SSE,150,4.0,7.0,99,0.05,,,0.16,0.000000,,2013-03-31 02:43:00,
2013-03-30 22:53:00,51.0,51.0,-100.00,SSE,150,4.0,7.0,99,0.05,,,0.16,0.000000,,2013-03-31 02:53:00,
2013-03-30 23:02:00,51.0,51.0,-100.00,SSE,150,4.0,7.0,99,0.05,,,0.16,0.000000,,2013-03-31 03:02:00,
2013-03-30 23:33:00,51.0,51.0,-100.00,SE,137,4.0,7.0,100,0.09,,,0.25,0.000000,,2013-03-31 03:33:00,
2013-03-30 23:44:00,51.0,51.0,-100.00,SE,137,4.0,7.0,100,0.09,,,0.25,0.000000,,2013-03-31 03:44:00,
2013-03-30 23:54:00,51.0,51.0,-100.00,SE,137,4.0,7.0,100,0.09,,,0.25,0.000000,,2013-03-31 03:54:00,